Theta_e
335 335 338 338 336 336 335 336 336 337 337 337 337 336 336 337 336 336 335 334 333 332 332 332 334 333 329 327 326 325 316 320
327 329 330 332 332 334 334 334 334 335 336 335 334 334 335 335 335 335 333 332 332 332 332 332 330 332 327 325 325 321 314 317
327 328 331 331 330 332 333 334 333 333 333 332 329 327 325 325 331 331 330 329 330 332 330 328 324 327 327 323 318 312 312 315
327 328 329 329 329 328 325 326 326 325 325 324 322 322 325 327 329 329 329 330 328 327 324 322 316 311 312 314 307 309 311 313
325 330 330 326 325 324 323 321 321 321 322 321 321 322 324 323 322 323 317 320 313 313 311 309 308 307 307 306 305 306 305 310
323 327 328 326 323 322 321 323 325 325 323 325 322 320 318 317 316 314 312 310 309 309 308 306 305 306 304 303 304 302 301 306
323 327 328 325 322 321 323 326 325 324 324 324 321 318 316 315 312 311 310 308 307 306 305 304 304 303 302 302 302 300 300 301
325 328 328 323 322 322 323 322 321 322 322 322 321 317 313 311 309 309 308 306 305 304 303 303 302 301 300 301 299 299 298 298
327 327 324 323 321 321 321 320 320 319 320 319 318 315 312 310 307 306 306 305 304 303 303 302 301 300 298 298 298 298 297 296
327 328 323 320 319 319 319 317 317 316 317 316 315 313 311 307 305 305 304 304 303 302 301 300 298 297 295 294 296 296 296 295
323 324 321 319 317 318 317 315 313 313 313 312 311 312 309 305 304 304 303 302 301 301 298 298 296 295 297 294 293 293 293 295
323 322 319 318 318 317 315 313 312 313 310 309 308 309 307 305 303 303 302 300 299 297 296 295 295 294 297 294 292 292 291 291
323 319 318 319 318 316 312 311 311 309 308 307 307 306 305 303 302 301 301 299 297 297 295 294 294 292 291 291 290 290 290 289
322 320 319 319 319 317 315 312 309 306 305 305 305 304 303 303 301 299 298 297 296 295 295 293 293 292 290 288 286 288 289 289
322 321 320 319 319 317 310 307 305 303 302 302 303 304 301 298 297 295 295 294 293 293 294 293 291 291 290 289 284 283 284 287
322 322 321 320 319 317 313 310 305 302 302 301 296 297 296 296 295 295 295 294 293 293 296 293 291 289 290 292 288 287 283 281
321 322 321 321 318 316 312 307 303 303 300 294 294 295 296 295 295 294 294 294 294 294 293 292 292 291 290 289 287 285 283 281
320 320 320 320 318 314 310 303 301 299 293 293 293 293 293 294 294 294 296 297 294 293 292 292 291 290 290 288 286 285 283 281
320 318 313 315 313 308 305 303 302 299 294 293 292 292 292 293 295 295 295 297 295 294 294 291 291 289 289 288 288 287 286 284
319 313 307 305 304 302 298 298 299 297 296 294 294 294 294 295 294 295 293 292 293 294 293 291 290 289 289 288 289 287 286 285
Wind_Speed
7 7 13 14 14 16 15 14 13 13 13 14 13 12 12 12 11 10 9 9 9 10 10 11 11 12 12 11 10 10 6 4
15 12 7 5 6 13 11 12 11 11 11 11 10 11 9 9 8 8 7 9 10 10 9 9 11 11 11 10 10 9 5 4
10 6 5 6 5 5 7 9 10 11 10 11 7 4 4 6 6 7 9 9 8 8 12 11 10 12 12 9 7 3 3 2
12 12 8 3 2 4 3 5 4 4 5 5 4 4 4 5 4 9 9 10 12 14 12 12 9 5 4 8 4 4 3 3
8 5 2 1 3 2 2 2 3 3 6 5 4 3 2 3 3 3 4 8 5 6 6 6 7 5 5 5 5 4 3 2
10 3 5 3 3 3 3 3 3 3 4 4 4 3 4 4 3 4 5 3 6 5 4 5 7 7 7 6 6 5 4 3
10 6 5 5 5 4 4 4 3 4 4 4 4 4 4 4 4 4 5 4 4 5 5 5 5 5 6 6 6 6 7 4
8 6 5 5 4 5 4 4 4 4 4 4 5 4 4 5 4 4 5 4 4 4 4 5 5 5 6 5 5 6 6 6
9 7 7 6 6 5 5 4 4 4 4 5 6 5 5 6 5 5 4 4 6 5 5 5 5 3 5 5 5 6 5 6
8 9 8 8 7 5 4 4 4 4 4 4 6 6 7 6 5 4 4 5 4 4 3 4 4 5 3 4 5 5 5 6
8 8 9 9 6 5 5 5 4 4 4 4 6 6 6 6 5 4 5 5 5 3 3 2 3 3 2 3 5 4 5 5
8 7 9 9 5 5 3 4 3 3 3 4 6 5 6 6 5 5 4 5 4 3 3 4 3 2 3 4 4 3 3 5
10 10 9 10 6 5 3 4 3 2 2 6 6 6 6 6 4 5 5 5 4 2 2 5 4 3 3 3 3 3 4 4
10 11 11 10 8 4 4 4 2 2 3 5 5 6 6 5 5 5 5 4 5 5 5 2 2 3 3 1 3 3 2 3
14 13 14 10 7 5 4 4 4 3 2 3 3 5 6 6 6 5 5 5 5 4 3 3 1 2 3 3 1 3 3 2
10 12 14 10 8 7 10 7 7 3 3 3 4 6 7 7 6 6 6 4 5 2 2 1 2 1 2 3 3 3 4 3
10 10 10 8 8 6 6 5 3 4 4 7 6 5 6 6 6 6 6 4 3 4 4 4 2 2 2 1 1 0 0 3
7 11 10 7 9 6 7 8 8 7 5 5 4 4 4 6 6 6 5 4 3 1 2 3 2 2 2 2 2 2 3 3
10 10 7 7 9 8 8 9 10 12 9 7 8 4 3 5 5 4 4 2 4 3 3 2 3 2 3 3 3 3 3 3
11 10 7 7 8 7 7 9 7 7 7 6 5 5 5 4 6 5 4 2 2 3 2 3 3 3 4 4 3 3 3 2
Wind_Direction
134 89 117 110 122 118 120 132 141 136 130 130 128 124 125 130 133 123 121 107 89 70 50 33 49 87 84 95 103 102 87 76
45 59 38 69 120 106 131 139 135 133 124 121 133 131 136 137 111 111 101 83 74 71 62 51 47 77 93 104 110 92 84 74
95 81 352 16 48 129 127 134 129 122 128 141 119 104 98 92 113 94 66 59 63 71 70 71 57 54 72 74 76 60 73 84
149 171 186 191 101 99 102 123 108 117 122 108 103 122 143 113 106 86 65 80 75 72 63 62 57 50 49 56 51 50 32 9
193 201 199 112 117 83 63 70 110 122 128 134 147 132 104 97 82 88 82 71 61 55 56 54 62 59 48 42 45 45 28 1
200 248 142 196 134 125 117 140 141 155 170 149 123 111 105 95 82 92 83 69 73 71 63 61 57 56 52 38 44 37 17 10
207 205 180 192 139 128 167 144 126 118 120 130 130 114 116 112 95 79 73 81 82 80 75 66 58 57 48 47 41 28 21 2
202 195 168 176 135 157 146 125 114 99 107 135 118 125 124 96 96 82 80 76 78 77 74 66 53 43 45 55 41 43 33 10
188 174 163 156 133 154 146 124 135 134 130 134 124 119 110 110 94 78 96 92 85 68 59 56 47 34 54 36 43 35 29 5
163 171 156 135 156 147 128 149 144 133 136 115 106 114 109 100 104 101 104 86 84 72 60 63 60 40 29 28 38 37 27 18
158 147 152 143 142 129 134 150 126 137 102 101 121 112 107 107 105 105 105 92 83 105 62 101 68 25 63 51 44 51 33 30
142 151 150 141 135 115 97 85 96 99 137 111 107 113 111 110 108 124 116 99 87 82 100 60 83 58 47 26 48 47 51 45
160 152 158 149 150 141 129 158 156 125 146 126 120 121 131 130 124 111 88 92 107 79 86 56 40 32 61 359 41 35 30 48
168 169 166 173 165 156 147 147 152 122 132 124 139 143 141 119 108 90 98 100 71 57 56 57 72 14 126 100 17 326 358 52
178 173 176 179 169 128 85 70 62 83 96 109 140 116 90 95 91 88 73 67 57 44 54 83 142 2 32 135 79 239 338 333
180 177 178 179 170 167 163 170 163 165 145 118 92 85 89 89 88 78 73 76 68 50 67 65 94 140 359 10 36 140 193 310
178 177 184 182 181 162 152 150 135 117 106 110 103 90 85 82 89 86 76 66 63 104 100 104 129 133 182 220 230 298 158 164
178 173 179 166 171 172 173 152 133 127 133 126 117 104 100 101 90 93 85 80 106 129 137 133 125 138 200 191 196 208 232 205
175 174 182 172 160 161 163 151 154 157 155 146 142 132 110 106 101 92 80 114 147 168 165 176 185 187 197 212 202 216 192 194
176 178 163 166 155 157 141 146 150 147 144 140 132 129 135 145 120 108 133 137 142 200 199 195 200 218 220 223 236 234 197 185